sat.trackr.live / text

‹ back to catalog

STARLINK-34237

NORAD 64194 · 2025-113AA

PAYLOAD ACTIVE UNKNOWN

§ Identity

Operator
Country
US
Launch date
2025-05-28
Launch site
AFETR
Launch vehicle
Mass (kg)
RCS (m²)

Purposes: comms

External: N2YO · Heavens-Above · Gunter

§ Orbital elements

Epoch: 2026-05-25T03:05:33.381312Z

Period
94.01 min
Inclination
53.1612°
Eccentricity
0.0001146
Mean motion
15.31706540 rev/d
Perigee alt
469.9 km
Apogee alt
471.5 km
Semi-major
6,848.9 km
B*
8.6877e-4
RAAN
95.6973°
Arg perigee
79.7149°
Mean anomaly
280.3981°
Rev number
5,673

§ Raw data

STARLINK-342371 64194U 25113AA  26145.12885858  .00026696  00000+0  86877-3 0  99962 64194  53.1612  95.6973 0001146  79.7149 280.3981 15.31706540 56736

JSON: /api/v1/satellites/64194 · /tle

For live sub-satellite position, see the globe view (requires WebGL).

§ Visibility from observer

Set your observer location to see the next 7 days of passes ≥ 10°. The values pass through the URL so the page stays shareable.

No JS? Fill the form by hand. The geolocation button needs JavaScript.